DIAMANT R/B, 2017

Orbit data source: Space-Track

DIAMANT R/B, 2017 is space debris in LEO originally from a launch on Thu, 17 Feb 1966 UTC launched from the Hamma Guira Space Track Range (HGSTR). Debris objects in space refer to the collection of defunct objects orbiting the Earth. Examples of debris include non-operational satellites, rocket bodies, and fragments generated from explosions, collisions, or faulty payload assembly.

Loading next visibility...
Identifier
2017, 1966-013B
Orbit
LEO
Country
Flag of FRFR
Related business
Manufacturer
Sud
Mission
Spacecraft
Bus & Motor
RUBIS, Unknown motor
Mass
65 kg wet, 65 kg dry
Launch date (UTC)
1966-02-17 (60 years ago)
Launch vehicle
Unknown
Launch site
Hamma Guira Space Track Range (HGSTR)
Object type
Payload
Rocket body
Debris
Shape & HBR
Unknown
Radar Cross Section
Medium (>0.1 m² and <1 m²)

Expand to show TLE details & history
Last TLE update: 12 hours ago

TLE from 12 hours ago
0 DIAMANT R/B
1 02017U 66013B   25300.67194980  .00003018  00000-0  79368-3 0  9998
2 02017  34.0640  42.6221 1039412 132.4026 236.9395 12.92287273739665
Epoch: 2025-10-27T16:07Z
TLE epoch observation values (Epoch: 2025-10-27T16:07:36.462Z)
Latitude
0.00001°
Longitude
124.44975°
Altitude
1,779.623 km
Speed
6.767 km/s
True Right ascension
02h 50m 29s
True Declination
0° 00' 00"
Sunlit
Object was in full shadow at epoch
Visualization orbit readout
Latitude
Unknown
Longitude
Unknown
Altitude
Unknown
Speed
Unknown
Apparent Right ascension
Unknown
Apparent Declination
Unknown
Sunlit
N/A
Visualization observer readout
Local Sidereal Time
23:08:06
Azimuth
Unknown
Elevation
Unknown
Doppler factor
Unknown
Orbital elements
Apogee altitude
2,093.167 km
Perigee altitude
497.942 km
Semi-major axis
7,673.692 km
Eccentricity
0.10394
Inclination
34.064°
RAAN
42.6221°
Arg. of periapsis
132.4026°
True anomaly
227.65973°
Mean anomaly
236.9395°
Eccentric anomaly
232.23179°
Mean motion
3.22877 °/min
Orbital period
111.5 mins
BSTAR
0.00079368
Loading maneuver chart data...
Computing Atmospheric mass density...

Documentation

Showing up to 5 results
|